• In Hungary
  • List of Countries
  • For 7 days
  • Water Temperature
  • Satellite Maps
  • Weather Map
  • News
  • Weather Widgets
  • user-avatar
    Login

    Hourly Weather Zavydovo

    Today, 24 January, Wednesday

    Time Temperature Precipitation Wind Pressure Humidity
    00:00 -4°C° 0 mm 2 mps 751 mmHg 82%
    01:00 -4°C° 0 mm 2 mps 751 mmHg 84%
    02:00 -5°C° 0 mm 2 mps 752 mmHg 84%
    03:00 -5°C° 0 mm 2 mps 752 mmHg 85%
    04:00 -6°C° 0 mm 3 mps 752 mmHg 86%
    05:00 -7°C° 0 mm 3 mps 752 mmHg 86%
    06:00 -7°C° 0 mm 3 mps 752 mmHg 87%
    07:00 -7°C° 0 mm 3 mps 753 mmHg 86%
    08:00 -8°C° 0 mm 3 mps 753 mmHg 86%
    09:00 -8°C° 0 mm 3 mps 753 mmHg 89%
    10:00 -8°C° 0 mm 4 mps 754 mmHg 92%
    11:00 -5°C° 0 mm 4 mps 754 mmHg 90%
    12:00 -4°C° 0 mm 4 mps 754 mmHg 90%
    13:00 -4°C° 0 mm 4 mps 754 mmHg 91%
    14:00 -4°C° 0 mm 4 mps 754 mmHg 92%
    15:00 -4°C° 0 mm 4 mps 754 mmHg 92%
    16:00 -4°C° 0 mm 4 mps 754 mmHg 93%
    17:00 -4°C° 0 mm 3 mps 754 mmHg 93%
    18:00 -5°C° 0 mm 3 mps 754 mmHg 92%
    19:00 -4°C° 0 mm 4 mps 753 mmHg 92%
    20:00 -5°C° 0.1 mm 4 mps 754 mmHg 97%
    21:00 -5°C° 0.1 mm 4 mps 754 mmHg 100%
    22:00 -5°C° 0.2 mm 4 mps 753 mmHg 100%
    23:00 -5°C° 0.2 mm 4 mps 753 mmHg 100%

    Tomorrow, 25 January, Thursday

    Time Temperature Precipitation Wind Pressure Humidity
    00:00 -5°C° 0.2 mm 4 mps 753 mmHg 100%
    01:00 -5°C° 0.2 mm 4 mps 753 mmHg 100%
    02:00 -5°C° 0.2 mm 4 mps 753 mmHg 100%
    03:00 -5°C° 0.2 mm 4 mps 753 mmHg 100%
    04:00 -5°C° 0.3 mm 4 mps 753 mmHg 100%
    05:00 -5°C° 0.2 mm 3 mps 753 mmHg 100%
    06:00 -5°C° 0.1 mm 3 mps 752 mmHg 100%
    07:00 -5°C° 0 mm 3 mps 752 mmHg 97%
    08:00 -5°C° 0 mm 3 mps 752 mmHg 94%
    09:00 -5°C° 0 mm 3 mps 752 mmHg 92%
    10:00 -5°C° 0 mm 3 mps 752 mmHg 89%
    11:00 -4°C° 0 mm 4 mps 752 mmHg 86%
    12:00 -2°C° 0 mm 3 mps 751 mmHg 84%
    13:00 -2°C° 0 mm 3 mps 751 mmHg 84%
    14:00 -2°C° 0 mm 4 mps 751 mmHg 85%
    15:00 -2°C° 0 mm 4 mps 750 mmHg 85%
    16:00 -1°C° 0 mm 3 mps 750 mmHg 84%
    17:00 -2°C° 0 mm 3 mps 749 mmHg 82%
    18:00 -4°C° 0 mm 4 mps 749 mmHg 77%
    19:00 -4°C° 0 mm 4 mps 749 mmHg 75%
    20:00 -2°C° 0 mm 3 mps 749 mmHg 71%
    21:00 -2°C° 0 mm 3 mps 749 mmHg 69%
    22:00 -2°C° 0 mm 3 mps 748 mmHg 69%
    23:00 -4°C° 0 mm 3 mps 748 mmHg 71%

    Day after tomorrow, 26 January, Friday

    Time Temperature Precipitation Wind Pressure Humidity
    00:00 -4°C° 0 mm 4 mps 748 mmHg 73%
    01:00 -4°C° 0 mm 4 mps 748 mmHg 72%
    02:00 -4°C° 0 mm 4 mps 748 mmHg 72%
    03:00 -4°C° 0 mm 4 mps 747 mmHg 73%
    04:00 -4°C° 0 mm 4 mps 747 mmHg 73%
    05:00 -3°C° 0 mm 4 mps 747 mmHg 73%
    06:00 -3°C° 0 mm 4 mps 746 mmHg 73%
    07:00 -3°C° 0 mm 4 mps 746 mmHg 73%
    08:00 -3°C° 0 mm 4 mps 746 mmHg 74%
    09:00 -3°C° 0 mm 4 mps 746 mmHg 74%
    10:00 -2°C° 0 mm 4 mps 746 mmHg 75%
    11:00 -1°C° 0 mm 4 mps 746 mmHg 76%
    12:00 0°C° 0 mm 4 mps 747 mmHg 77%
    13:00 +1°C° 0 mm 4 mps 746 mmHg 77%
    14:00 +3°C° 0 mm 4 mps 746 mmHg 78%
    15:00 +3°C° 0 mm 4 mps 746 mmHg 78%
    16:00 +3°C° 0 mm 4 mps 746 mmHg 78%
    17:00 +2°C° 0 mm 3 mps 746 mmHg 77%
    18:00 +1°C° 0 mm 3 mps 746 mmHg 76%
    19:00 +1°C° 0 mm 3 mps 747 mmHg 75%
    20:00 +1°C° 0 mm 3 mps 747 mmHg 74%
    21:00 +2°C° 0 mm 3 mps 747 mmHg 73%
    22:00 +2°C° 0 mm 3 mps 747 mmHg 72%
    23:00 +2°C° 0 mm 3 mps 748 mmHg 72%

    27 January, Saturday

    Time Temperature Precipitation Wind Pressure Humidity
    00:00 +2°C° 0 mm 3 mps 748 mmHg 73%
    01:00 +3°C° 0 mm 2 mps 748 mmHg 72%
    02:00 +3°C° 0 mm 2 mps 748 mmHg 70%
    03:00 +3°C° 0 mm 2 mps 748 mmHg 69%
    04:00 +4°C° 0 mm 1 mps 748 mmHg 70%
    05:00 +4°C° 0 mm 1 mps 748 mmHg 70%
    06:00 +4°C° 0 mm 1 mps 748 mmHg 69%
    07:00 +4°C° 0 mm 1 mps 749 mmHg 69%
    08:00 +3°C° 0 mm 1 mps 749 mmHg 71%
    09:00 +2°C° 0 mm 0 mps 749 mmHg 72%
    10:00 +3°C° 0 mm 0 mps 750 mmHg 74%
    11:00 +4°C° 0 mm 0 mps 750 mmHg 77%
    12:00 +4°C° 0 mm 0 mps 750 mmHg 76%
    13:00 +5°C° 0 mm 0 mps 750 mmHg 76%
    14:00 +5°C° 0 mm 0 mps 750 mmHg 77%

    28 January, Sunday

    Time Temperature Precipitation Wind Pressure Humidity

    29 January, Monday

    Time Temperature Precipitation Wind Pressure Humidity
    Show more